• In Germany
  • List of Countries
  • For 7 days
  • Water Temperature
  • Satellite Maps
  • Weather Map
  • Weather Widgets
  • user-avatar
    Login

    Hourly Weather Prutz

    Today, 20 October, Friday

    Time Temperature Precipitation Wind Pressure Humidity
    00:00 +6°C° 0 mm 2 mps 633 mmHg 56%
    01:00 +7°C° 0 mm 3 mps 633 mmHg 59%
    02:00 +7°C° 0 mm 3 mps 633 mmHg 63%
    03:00 +7°C° 0 mm 2 mps 633 mmHg 66%
    04:00 +6°C° 0 mm 2 mps 633 mmHg 69%
    05:00 +6°C° 0 mm 2 mps 633 mmHg 70%
    06:00 +6°C° 0 mm 2 mps 633 mmHg 72%
    07:00 +6°C° 0 mm 2 mps 634 mmHg 72%
    08:00 +8°C° 0 mm 2 mps 634 mmHg 63%
    09:00 +12°C° 0 mm 1 mps 635 mmHg 55%
    10:00 +14°C° 0 mm 1 mps 636 mmHg 47%
    11:00 +15°C° 0 mm 1 mps 636 mmHg 45%
    12:00 +16°C° 0 mm 1 mps 637 mmHg 42%
    13:00 +15°C° 0 mm 1 mps 637 mmHg 44%
    14:00 +15°C° 0 mm 1 mps 636 mmHg 47%
    15:00 +14°C° 0 mm 1 mps 636 mmHg 49%
    16:00 +14°C° 0 mm 1 mps 636 mmHg 52%
    17:00 +12°C° 0 mm 1 mps 636 mmHg 60%
    18:00 +8°C° 0 mm 0 mps 635 mmHg 68%
    19:00 +6°C° 0 mm 0 mps 634 mmHg 76%
    20:00 +7°C° 0 mm 1 mps 635 mmHg 75%
    21:00 +7°C° 0 mm 1 mps 635 mmHg 73%
    22:00 +7°C° 0 mm 1 mps 635 mmHg 71%
    23:00 +7°C° 0 mm 1 mps 635 mmHg 70%

    Tomorrow, 21 October, Saturday

    Time Temperature Precipitation Wind Pressure Humidity
    00:00 +7°C° 0 mm 1 mps 635 mmHg 68%
    01:00 +6°C° 0 mm 1 mps 635 mmHg 66%
    02:00 +6°C° 0 mm 1 mps 634 mmHg 66%
    03:00 +6°C° 0 mm 1 mps 634 mmHg 65%
    04:00 +6°C° 0 mm 1 mps 634 mmHg 65%
    05:00 +6°C° 0 mm 1 mps 634 mmHg 65%
    06:00 +6°C° 0 mm 1 mps 634 mmHg 65%
    07:00 +6°C° 0 mm 1 mps 634 mmHg 65%
    08:00 +8°C° 0 mm 1 mps 635 mmHg 59%
    09:00 +10°C° 0 mm 0 mps 636 mmHg 52%
    10:00 +12°C° 0 mm 0 mps 637 mmHg 46%
    11:00 +13°C° 0 mm 0 mps 637 mmHg 45%
    12:00 +15°C° 0 mm 1 mps 637 mmHg 43%
    13:00 +16°C° 0 mm 1 mps 637 mmHg 41%
    14:00 +15°C° 0 mm 1 mps 636 mmHg 47%
    15:00 +14°C° 0 mm 1 mps 636 mmHg 53%
    16:00 +14°C° 0 mm 1 mps 635 mmHg 58%
    17:00 +12°C° 0 mm 1 mps 635 mmHg 66%
    18:00 +10°C° 0 mm 1 mps 634 mmHg 74%
    19:00 +8°C° 0 mm 1 mps 634 mmHg 81%
    20:00 +7°C° 0 mm 1 mps 634 mmHg 83%
    21:00 +7°C° 0 mm 1 mps 634 mmHg 84%
    22:00 +6°C° 0 mm 1 mps 634 mmHg 86%
    23:00 +6°C° 0.3 mm 1 mps 634 mmHg 88%

    Day after tomorrow, 22 October, Sunday

    Time Temperature Precipitation Wind Pressure Humidity
    00:00 +6°C° 0.3 mm 1 mps 634 mmHg 91%
    01:00 +6°C° 0.3 mm 1 mps 634 mmHg 93%
    02:00 +6°C° 0.4 mm 1 mps 634 mmHg 94%
    03:00 +5°C° 0.4 mm 1 mps 634 mmHg 94%
    04:00 +5°C° 0.4 mm 1 mps 633 mmHg 95%
    05:00 +5°C° 1 mm 1 mps 633 mmHg 94%
    06:00 +4°C° 1 mm 2 mps 633 mmHg 94%
    07:00 +4°C° 1 mm 2 mps 633 mmHg 94%
    08:00 +4°C° 1.2 mm 2 mps 633 mmHg 93%
    09:00 +3°C° 1.2 mm 2 mps 633 mmHg 93%
    10:00 +3°C° 1.2 mm 2 mps 633 mmHg 92%
    11:00 +3°C° 1.1 mm 2 mps 632 mmHg 91%
    12:00 +3°C° 1.1 mm 2 mps 632 mmHg 91%
    13:00 +2°C° 1.1 mm 3 mps 632 mmHg 90%
    14:00 +1°C° 0.7 mm 3 mps 631 mmHg 90%
    15:00 +1°C° 0.7 mm 3 mps 631 mmHg 91%
    16:00 +1°C° 0.7 mm 3 mps 631 mmHg 91%
    17:00 0°C° 0.3 mm 3 mps 631 mmHg 92%
    18:00 0°C° 0.3 mm 3 mps 631 mmHg 93%
    19:00 -1°C° 0.3 mm 2 mps 632 mmHg 94%
    20:00 -1°C° 0.3 mm 2 mps 632 mmHg 94%
    21:00 -1°C° 0.3 mm 2 mps 632 mmHg 94%
    22:00 -1°C° 0.3 mm 2 mps 632 mmHg 94%
    23:00 -2°C° 0.4 mm 2 mps 632 mmHg 94%

    23 October, Monday

    Time Temperature Precipitation Wind Pressure Humidity
    00:00 -2°C° 0.4 mm 2 mps 632 mmHg 94%
    01:00 -2°C° 0.4 mm 2 mps 632 mmHg 94%
    02:00 -2°C° 0.3 mm 2 mps 632 mmHg 94%
    03:00 -2°C° 0.3 mm 2 mps 632 mmHg 95%
    04:00 -2°C° 0.3 mm 2 mps 632 mmHg 95%
    05:00 -2°C° 0.5 mm 2 mps 632 mmHg 94%
    06:00 -2°C° 0.5 mm 2 mps 633 mmHg 94%
    07:00 -2°C° 0.5 mm 2 mps 633 mmHg 94%
    08:00 -1°C° 0.7 mm 2 mps 633 mmHg 92%
    09:00 -1°C° 0.7 mm 2 mps 633 mmHg 91%
    10:00 +1°C° 0.7 mm 2 mps 633 mmHg 89%
    11:00 +1°C° 0.6 mm 2 mps 633 mmHg 88%
    12:00 +2°C° 0.6 mm 2 mps 633 mmHg 87%
    13:00 +1°C° 0.6 mm 3 mps 633 mmHg 86%
    14:00 +2°C° 0.7 mm 2 mps 633 mmHg 88%
    15:00 +1°C° 0.7 mm 2 mps 633 mmHg 89%
    16:00 +1°C° 0.7 mm 2 mps 633 mmHg 90%
    17:00 +1°C° 0.9 mm 2 mps 634 mmHg 92%
    18:00 +1°C° 0.9 mm 2 mps 634 mmHg 93%
    19:00 -1°C° 0.9 mm 2 mps 634 mmHg 94%
    20:00 -1°C° 1 mm 2 mps 635 mmHg 94%
    21:00 +1°C° 1 mm 2 mps 635 mmHg 94%
    22:00 +1°C° 1 mm 2 mps 635 mmHg 94%
    23:00 +1°C° 0.5 mm 2 mps 635 mmHg 94%

    24 October, Tuesday

    Time Temperature Precipitation Wind Pressure Humidity
    00:00 +1°C° 0.5 mm 2 mps 635 mmHg 94%
    01:00 +1°C° 0.5 mm 2 mps 635 mmHg 94%
    02:00 -1°C° 0.3 mm 2 mps 635 mmHg 94%
    03:00 -1°C° 0.3 mm 2 mps 635 mmHg 94%
    04:00 -1°C° 0.3 mm 2 mps 635 mmHg 94%
    05:00 -1°C° 0.2 mm 2 mps 636 mmHg 94%
    06:00 +1°C° 0.2 mm 2 mps 636 mmHg 93%
    07:00 +1°C° 0.2 mm 2 mps 636 mmHg 93%
    08:00 +2°C° 0.1 mm 2 mps 636 mmHg 92%
    09:00 +3°C° 0.1 mm 2 mps 637 mmHg 92%
    10:00 +4°C° 0.1 mm 2 mps 637 mmHg 92%
    11:00 +5°C° 0 mm 2 mps 637 mmHg 92%
    12:00 +5°C° 0 mm 2 mps 637 mmHg 92%
    13:00 +6°C° 0 mm 2 mps 637 mmHg 92%
    14:00 +6°C° 0 mm 2 mps 637 mmHg 93%
    15:00 +5°C° 0 mm 2 mps 637 mmHg 93%
    16:00 +5°C° 0 mm 2 mps 637 mmHg 94%
    17:00 +4°C° 0 mm 2 mps 637 mmHg 95%
    18:00 +3°C° 0 mm 2 mps 638 mmHg 96%
    19:00 +3°C° 0 mm 1 mps 638 mmHg 97%
    20:00 +3°C° 0 mm 1 mps 638 mmHg 96%
    21:00 +3°C° 0 mm 1 mps 638 mmHg 96%
    22:00 +3°C° 0 mm 1 mps 638 mmHg 95%
    23:00 +2°C° 0 mm 1 mps 638 mmHg 93%

    25 October, Wednesday

    Time Temperature Precipitation Wind Pressure Humidity
    00:00 +2°C° 0 mm 1 mps 638 mmHg 91%
    01:00 +2°C° 0 mm 1 mps 638 mmHg 90%
    02:00 +2°C° 0 mm 1 mps 637 mmHg 87%
    03:00 +2°C° 0 mm 1 mps 637 mmHg 84%
    04:00 +2°C° 0 mm 1 mps 637 mmHg 81%
    05:00 +1°C° 0 mm 2 mps 638 mmHg 80%
    06:00 +2°C° 0 mm 2 mps 638 mmHg 78%
    07:00 +2°C° 0 mm 2 mps 638 mmHg 77%
    08:00 +4°C° 0 mm 2 mps 638 mmHg 80%
    09:00 +7°C° 0 mm 1 mps 639 mmHg 82%
    10:00 +9°C° 0 mm 1 mps 640 mmHg 85%
    11:00 +10°C° 0 mm 1 mps 640 mmHg 84%
    12:00 +10°C° 0 mm 1 mps 640 mmHg 83%
    13:00 +11°C° 0 mm 1 mps 640 mmHg 82%
    14:00 +11°C° 0 mm 1 mps 640 mmHg 84%
    15:00 +10°C° 0 mm 1 mps 639 mmHg 85%
    16:00 +10°C° 0 mm 1 mps 639 mmHg 87%
    17:00 +8°C° 0 mm 1 mps 639 mmHg 85%
    18:00 +7°C° 0 mm 1 mps 639 mmHg 83%
    19:00 +5°C° 0 mm 1 mps 638 mmHg 81%
    20:00 +5°C° 0 mm 1 mps 639 mmHg 77%
    21:00 +5°C° 0 mm 1 mps 639 mmHg 74%
    22:00 +5°C° 0 mm 1 mps 639 mmHg 71%
    23:00 +5°C° 0 mm 1 mps 639 mmHg 69%
    Show more